Location: Unspecified
(44.4377°N, 88.0525°W)
Time: 20:22:54
(UTC-05:00)

ISS - Pass Details

Date: 26 March 2018
Orbit: 402 x 408 km, 51.6° (Epoch: 20 July)

Event Time Altitude Azimuth Distance (km) Brightness Sun altitude
Rises 19:37:39 0° 218° (SW) 2,337 0.5 -5.3°
Reaches altitude 10° 19:39:49 10° 210° (SSW) 1,480 -0.7 -5.7°
Maximum altitude 19:42:55 37° 141° (SE) 662 -3.1 -6.3°
Drops below altitude 10° 19:46:02 10° 72° (ENE) 1,494 -1.5 -6.8°
Enters shadow 19:46:55 - 68° (ENE) 1,837 -1.0 -7.0°
